ECHOSTAR 14

Last updated on Mon Sep 07 2026 00:02:57 GMT+0000 (Coordinated Universal Time)

1 36499U 10010A 26249.56824823 -.00000016 00000+0 00000+0 0 9990 2 36499 0.0535 273.8516 0001924 262.1437 255.3124 1.00271013 47366
UTC large
Height (km)
Speed (km/s)
/
Latitude / Longitude
Inclination (degrees)
Orbital Period (minutes)
Azimuth
Elevation
Range (km)
Doppler Factor

Next 0 passes for location: London (51.5072 / 0.1276)

No passes found over London.
ECHOSTAR 14